This demonstration page uses our WeatherBlox Daily Observations layout. Learn more.

Left ArrowRight Arrow

44.8408, -93.29828

Hourly Observations for November 15, 2020

Temp ( °F °C ) Dew Point ( °F °C ) Humidity (%) Winds ( mph kmh ) Pressure ( in mb ) Visibility ( mi km ) Precip ( " mm )
12:08 am 00:08 Cloudy with Drizzle 35 1.7 34 1.1 96 96 WNW 9 15 29.45 997 6 10 0.00 0.00
12:53 am 00:53 Cloudy with Mist and Fog 35 1.7 34 1.1 96 96 WNW 12 19 29.44 997 6 10 0.01 0.25
1:30 am 01:30 Cloudy with Mist and Fog 35 1.7 34 1.1 96 96 NW 10 17 29.44 997 6 10 0.00 0.00
1:39 am 01:39 Mostly Cloudy with Mist and Fog 35 1.7 34 1.1 96 96 NW 10 17 29.43 997 6 10 0.00 0.00
1:53 am 01:53 Mostly Cloudy with Mist and Fog 35 1.7 34 1.1 96 96 WNW 10 17 29.42 996 6 10 0.00 0.00
2:53 am 02:53 Cloudy 35 1.7 33 0.6 93 93 WNW 15 24 29.44 997 9 14 0.00 0.00
3:53 am 03:53 Cloudy 36 2.2 31 -0.6 82 82 WNW 14 22 29.44 997 10 16 0.00 0.00
4:06 am 04:06 Mostly Cloudy 36 2.2 31 -0.6 82 82 WNW 13 20 29.47 998 10 16 0.00 0.00
4:53 am 04:53 Cloudy 34 1.1 28 -2.2 79 79 WNW 17 28 29.47 998 10 16 0.00 0.00
5:53 am 05:53 Cloudy 34 1.1 26 -3.3 73 73 WNW 15 24 29.48 998 10 16 0.00 0.00
6:25 am 06:25 Cloudy 33 0.6 25 -3.9 72 72 WNW 23 37 29.50 999 10 16 0.00 0.00
6:53 am 06:53 Cloudy 33 0.6 24 -4.4 70 70 NW 17 28 29.50 999 10 16 0.00 0.00
7:35 am 07:35 Cloudy 33 0.6 25 -3.9 72 72 WNW 22 35 29.54 1000 10 16 0.00 0.00
7:53 am 07:53 Cloudy 33 0.6 24 -4.4 70 70 WNW 24 39 29.53 1000 9 14 0.00 0.00
8:03 am 08:03 Cloudy 33 0.6 24 -4.4 70 70 NW 25 41 29.55 1001 10 16 0.00 0.00
8:53 am 08:53 Cloudy 32 0 23 -5 69 69 WNW 16 26 29.56 1001 10 16 0.00 0.00
9:14 am 09:14 Cloudy 32 0 23 -5 69 69 WNW 24 39 29.59 1002 10 16 0.00 0.00
9:53 am 09:53 Cloudy 32 0 24 -4.4 73 73 WNW 22 35 29.59 1002 10 16 0.00 0.00
10:53 am 10:53 Cloudy 31 -0.6 23 -5 72 72 WNW 21 33 29.63 1004 10 16 0.00 0.00
11:53 am 11:53 Windy with Snow Likely 31 -0.6 23 -5 72 72 WNW 20 31 29.66 1005 8 13 0.00 0.00
12:53 pm 12:53 Cloudy 31 -0.6 23 -5 72 72 WNW 23 37 29.69 1005 10 16 0.00 0.00
1:53 pm 13:53 Cloudy 31 -0.6 22 -5.6 69 69 WNW 25 41 29.73 1007 10 16 0.00 0.00
2:53 pm 14:53 Cloudy 30 -1.1 21 -6.1 69 69 WNW 25 41 29.79 1009 10 16 0.00 0.00
3:53 pm 15:53 Cloudy 29 -1.7 21 -6.1 72 72 WNW 14 22 29.84 1011 10 16 0.00 0.00
4:53 pm 16:53 Cloudy 29 -1.7 21 -6.1 72 72 WNW 20 31 29.89 1012 10 16 0.00 0.00
5:53 pm 17:53 Mostly Cloudy 28 -2.2 19 -7.2 69 69 WNW 17 28 29.92 1013 10 16 0.00 0.00
6:14 pm 18:14 Partly Cloudy 27 -2.8 19 -7.2 72 72 WNW 16 26 29.96 1014 10 16 0.00 0.00
6:53 pm 18:53 Partly Cloudy 27 -2.8 19 -7.2 72 72 WNW 14 22 29.95 1014 10 16 0.00 0.00
7:53 pm 19:53 Mostly Clear 27 -2.8 19 -7.2 72 72 WNW 16 26 29.96 1015 10 16 0.00 0.00
8:53 pm 20:53 Mostly Clear 26 -3.3 19 -7.2 75 75 WNW 13 20 29.99 1016 10 16 0.00 0.00
9:53 pm 21:53 Partly Cloudy 26 -3.3 19 -7.2 75 75 W 8 13 30.01 1016 10 16 0.00 0.00
10:53 pm 22:53 Partly Cloudy 25 -3.9 19 -7.2 78 78 W 6 9 30.03 1017 10 16 0.00 0.00
11:53 pm 23:53 Partly Cloudy 25 -3.9 19 -7.2 78 78 SW 5 7 30.02 1017 10 16 0.00 0.00

Powered by AerisWeather